Charter Quote
Worldwide +1-877-727-2538 Call
Select Language Lang
SAFETY RELIABILITY EXPERIENCE

Hyakuri Airport (RJAH) - Jet Charter Services

AIRPORT INFORMATION
ICAORJAH
LOCATIONTsuchiura, Japan
FACILITY TYPEAIRPORT
Runway Length (ft) Width (ft) Surface Type Elevation (ft)
21/03 8860 150 CON 104.91803

At Paramount Business Jets you can hire chartered private jets to and from Hyakuri Airport with as little as 4 hours of notice. All flights booked via Paramount Business Jets are operated by certified direct air carriers that meet and exceed the FAA part 135 and 121 protocol or a foreign equivalent safety authority. Furthermore, Paramount Business Jets subscribes to ARGUS for their third party safety checks of operators, aircraft, and crews prior each and every flight to and from Hyakuri Airport and worldwide.

  • Quote a trip using Hyakuri Airport or call us 24/7 - 365 days a year at +1-877-727-2538.
Questions? Call +1-877-727-2538

METAR Weather Data at Hyakuri Airport, RJAH

STATIONRJAH
OBSERVEDTue Mar 19, 20:00 UTC
NOWTue Mar 19, 20:49 UTC
AGE49 min ago
WINDN at 2 mph
VISIBILITY16 miles
CLOUDSpartly cloudy
TEMP41°F (5°C)
DEWPT34°F (1°C)
HUMIDITY76%
BAROMETER1016 hPa (30 in Hg)
METARRJAH 192000Z 35002KT 9999 FEW030 05/01 Q1016

Call us on +1-877-727-2538 (24 Hours) to Hire a Private Jet or Get a Quick Quote.

Find Airports Near any Location

Processing
...